Theta_e
310 312 312 312 312 312 313 311 309 309 309 309 310 311 311 311 310 310 318 319 316 318 316 318 319 321 322 324 318 328 322 322 320 316 312 312 311 314 311 314 314 312 310 308 309 306 303 323 320 311 321 323 321 319
310 310 312 312 312 312 312 312 309 309 309 309 309 311 311 310 309 308 313 316 317 318 317 323 322 323 321 321 326 329 328 325 325 317 317 317 312 315 312 307 319 309 315 315 314 313 326 326 327 332 327 323 323 322
310 310 311 312 312 312 312 312 310 309 308 308 309 309 310 310 309 308 311 315 317 317 317 320 319 324 327 328 330 326 328 332 331 335 322 319 313 317 311 311 314 319 322 315 315 318 322 326 327 329 325 326 327 326
310 310 310 310 311 311 311 311 311 309 309 308 308 309 309 309 308 307 313 315 316 314 312 316 323 320 324 328 326 331 332 336 336 330 321 315 311 319 311 314 314 318 322 316 317 320 322 325 327 327 325 326 327 327
308 310 310 310 309 310 310 310 311 310 309 308 308 308 308 308 307 309 315 315 314 312 309 312 319 321 324 325 324 325 327 329 324 320 317 314 318 317 317 316 312 318 317 315 314 325 324 324 328 329 326 325 327 325
307 308 310 309 309 309 309 309 310 310 309 308 308 307 307 307 306 310 311 316 310 312 312 306 318 316 320 321 320 321 322 323 324 321 319 321 324 322 313 310 318 319 320 324 321 326 324 326 327 328 328 328 327 326
307 307 308 310 309 309 309 310 310 310 309 308 307 307 307 306 307 306 305 305 305 312 312 306 307 315 318 318 320 321 322 320 320 319 318 318 318 318 315 310 316 319 320 320 323 325 320 321 320 326 328 330 326 327
306 306 307 309 309 309 309 310 310 310 309 307 306 306 306 306 304 305 312 308 308 313 310 304 306 309 318 314 312 319 318 319 318 317 315 314 317 315 310 316 318 319 317 316 318 323 323 323 322 324 327 328 328 325
306 306 307 308 309 308 309 309 309 309 308 306 306 306 309 305 305 310 309 310 317 315 307 307 303 302 314 314 316 315 317 310 317 311 313 313 308 305 311 314 314 313 313 315 317 318 319 319 319 324 326 327 328 328
305 305 306 307 308 308 308 309 309 308 306 304 308 307 302 307 308 312 313 310 310 310 310 305 310 307 312 310 308 310 313 307 305 310 315 309 308 319 318 316 317 316 316 316 314 315 316 317 317 318 321 323 326 327
305 305 306 307 308 308 308 308 308 306 301 310 307 304 309 307 312 309 304 302 304 301 305 305 307 306 314 308 308 312 309 309 301 306 305 304 305 311 316 315 318 319 319 318 318 318 319 319 317 317 318 322 325 327
305 305 306 306 308 308 308 308 307 308 308 305 306 307 312 308 304 300 299 302 301 299 305 304 305 309 313 318 311 311 305 308 300 311 306 301 310 318 317 316 317 318 318 318 318 318 317 317 319 320 320 321 322 324
305 305 306 306 307 308 307 307 306 304 303 310 305 302 304 302 292 293 292 296 298 303 305 304 303 309 312 314 309 308 302 302 311 304 301 306 316 316 318 319 317 318 317 317 316 317 317 317 318 320 321 323 324 325
304 305 305 306 307 307 307 307 306 304 304 301 299 289 297 294 295 297 298 300 306 305 304 304 305 305 307 306 307 301 305 308 300 298 300 310 316 317 318 318 318 316 317 317 317 316 317 320 322 324 324 325 325 324
304 305 305 306 306 307 307 306 305 306 301 297 300 291 295 302 303 303 305 306 306 309 305 304 306 306 305 304 306 304 301 298 300 300 308 315 319 319 319 320 320 320 320 320 320 320 322 322 323 323 325 326 325 325
304 304 303 305 306 307 306 305 302 304 300 298 298 298 302 301 301 302 302 303 307 306 306 306 302 300 300 303 301 300 299 297 302 308 316 320 320 321 321 321 321 321 322 322 322 322 322 321 321 321 321 320 320 319
303 301 304 305 306 305 304 302 299 297 295 294 297 303 303 303 303 303 304 303 307 305 301 302 297 297 303 299 299 304 301 305 312 315 318 322 322 321 320 319 319 319 319 319 319 318 318 318 318 317 316 317 318 318
301 306 305 305 304 302 301 301 296 296 294 298 298 301 304 305 307 307 305 307 305 304 304 301 306 300 298 296 298 305 310 315 317 318 321 322 321 319 318 318 318 318 318 317 317 317 317 316 315 314 315 315 315 315
304 307 305 304 303 299 295 296 299 294 296 299 301 303 305 305 306 307 310 310 307 309 307 305 300 299 300 306 306 308 311 315 316 318 320 320 320 319 318 318 317 317 317 316 316 314 315 315 313 313 312 312 310 311
304 303 303 303 304 297 292 294 304 299 295 298 299 299 303 303 305 305 306 307 306 304 301 300 301 304 306 311 314 313 316 317 317 315 315 316 317 318 317 316 315 316 315 314 312 302 312 314 313 312 311 309 308 309
301 302 303 303 300 299 297 297 298 299 298 297 300 300 299 303 303 304 304 308 305 303 300 302 304 307 314 314 315 318 320 318 316 315 314 313 315 315 314 315 315 314 314 313 313 308 302 310 311 311 309 308 308 308
298 301 300 301 297 297 297 300 299 301 299 299 298 299 297 297 299 301 306 303 303 305 307 307 307 307 308 311 312 317 318 319 319 314 306 308 313 313 312 313 312 311 312 312 311 309 308 309 309 308 308 308 305 308
300 301 300 299 294 293 293 302 294 298 294 295 298 295 296 297 299 303 298 301 304 308 309 310 311 313 312 313 315 316 318 318 315 314 314 314 315 314 312 311 312 311 310 309 309 308 308 298 306 307 307 307 308 307
298 298 294 293 293 290 297 293 296 295 295 294 294 292 294 296 300 297 296 299 303 306 308 309 310 310 313 314 313 314 315 316 315 314 315 313 310 310 311 310 310 309 309 309 308 309 308 306 299 305 305 304 304 304
291 290 291 285 293 290 289 290 291 292 290 293 292 292 294 298 295 294 295 298 301 303 305 308 309 310 309 310 312 313 317 315 312 311 311 312 311 309 308 308 309 309 310 308 307 306 305 305 305 304 303 302 301 301
285 291 288 290 290 290 290 288 289 290 291 291 292 295 296 294 291 291 296 300 301 304 305 308 308 308 309 310 309 310 311 313 311 309 309 310 309 309 308 307 306 307 309 310 307 305 304 304 304 302 300 299 292 299
284 288 293 298 298 294 292 293 295 292 290 289 292 293 293 288 288 294 300 303 303 309 309 310 309 308 308 308 309 310 310 310 309 309 311 310 310 311 310 307 306 309 309 309 306 304 303 303 302 302 302 302 301 301
289 291 288 291 292 295 290 291 291 290 292 295 296 291 289 290 293 301 303 309 309 310 309 310 313 310 308 309 309 308 309 310 310 310 309 309 310 310 309 311 309 292 306 306 306 306 305 304 302 302 302 302 303 305
289 292 293 290 291 292 292 292 292 295 298 298 294 293 295 301 306 307 308 309 309 307 305 305 307 310 309 309 309 308 308 307 305 303 303 303 304 306 308 309 309 307 307 307 288 296 302 302 302 303 303 303 303 303
291 294 290 290 289 289 294 297 297 300 302 302 302 301 302 303 307 310 308 307 305 305 305 305 306 307 307 306 306 306 308 307 306 305 303 303 304 308 307 307 306 305 306 306 305 305 288 297 299 303 299 300 301 301
292 290 289 291 292 295 298 301 300 301 300 298 300 298 298 300 304 306 307 307 307 306 305 304 305 306 306 306 305 304 303 307 307 307 308 309 309 307 306 305 305 306 305 304 303 302 301 300 299 298 298 298 299 298
296 292 291 290 292 297 300 297 296 296 296 296 296 298 299 297 295 301 306 307 305 304 299 300 303 303 306 307 307 307 289 306 308 307 305 303 303 303 304 305 305 303 304 302 300 301 299 298 297 297 297 297 298 298
295 295 295 294 294 293 297 296 294 294 295 294 294 296 295 294 290 301 306 308 307 305 303 304 306 307 307 307 307 305 298 305 293 286 287 286 286 292 298 302 303 303 301 300 301 298 297 296 296 295 296 296 297 296
Wind_Speed
4 11 10 11 9 7 5 3 2 5 8 11 14 15 17 19 20 12 4 5 6 6 8 6 6 7 4 7 5 6 6 5 6 8 5 4 3 6 5 5 4 5 5 7 6 5 9 10 8 4 8 7 7 4
8 7 13 11 10 8 6 4 1 4 7 10 13 15 16 18 21 17 4 7 6 6 6 3 5 5 5 7 7 3 5 2 5 6 3 3 3 3 4 7 7 7 8 6 5 6 4 8 2 10 9 7 6 5
10 10 9 10 10 9 7 6 2 2 6 8 11 14 17 17 18 15 6 8 5 5 5 6 4 6 7 7 5 6 4 5 2 3 1 2 3 5 5 8 10 6 3 6 7 9 6 9 3 9 9 8 7 7
9 10 10 9 9 9 7 5 3 1 5 8 10 12 14 16 17 15 6 7 4 7 5 7 2 2 6 6 3 4 5 2 4 5 1 2 3 1 6 6 6 6 2 5 8 11 4 8 11 9 10 9 9 8
9 9 10 11 10 8 7 5 3 2 3 7 10 12 14 16 18 10 5 4 4 8 6 5 2 3 6 5 5 3 3 6 3 4 2 2 3 2 2 6 8 8 7 6 4 9 2 6 7 11 11 11 11 10
11 10 9 10 10 9 8 6 5 3 2 5 9 11 13 15 18 6 4 5 7 7 5 4 5 1 1 3 4 3 3 2 2 3 4 2 4 4 4 6 6 2 3 5 5 6 5 3 1 4 10 12 12 11
11 10 9 9 9 9 7 6 6 4 3 4 7 9 11 12 9 4 6 6 11 5 4 5 3 5 2 3 1 2 2 3 4 2 0 1 3 3 4 7 2 5 4 7 3 5 8 9 5 2 7 11 12 12
11 11 10 9 9 8 8 7 6 4 3 3 7 11 13 15 10 5 3 3 6 6 4 5 1 3 1 2 3 2 1 1 2 3 2 3 2 3 4 5 4 7 8 8 9 7 8 4 5 3 6 8 13 12
14 12 11 10 10 9 8 7 6 4 2 4 9 13 5 4 3 4 6 8 4 5 5 2 5 3 4 2 1 3 2 4 4 4 3 3 3 5 3 7 5 7 5 8 7 8 7 7 6 4 4 5 8 12
13 12 11 10 9 9 8 7 6 5 3 6 6 5 4 3 4 6 4 4 5 4 4 5 3 2 4 3 4 2 2 5 4 5 4 5 10 9 7 4 5 7 8 7 6 8 7 6 6 5 6 6 7 8
14 13 12 11 11 10 10 9 8 7 3 5 4 2 5 3 5 4 4 5 5 5 6 5 6 5 4 4 4 2 2 4 4 4 4 5 7 9 4 3 7 7 8 8 9 10 4 4 2 1 1 1 2 1
14 13 13 12 11 12 11 10 10 7 2 3 4 2 2 4 4 6 5 4 5 7 7 7 7 6 4 3 3 3 4 3 5 4 4 5 5 6 4 2 4 4 4 8 8 9 6 5 7 7 7 7 6 6
15 13 12 12 11 14 12 12 12 7 7 3 5 5 4 3 1 7 8 6 6 5 4 3 4 5 2 4 4 4 6 7 3 4 5 2 6 5 4 1 2 4 4 5 5 6 9 9 8 9 8 7 8 8
15 14 13 12 12 13 12 12 8 4 3 5 6 2 7 6 8 6 8 9 4 3 5 7 7 5 6 6 5 5 5 3 5 6 10 4 6 5 4 4 5 6 7 7 7 8 11 11 10 10 9 9 9 9
15 13 12 11 13 13 13 12 9 3 1 4 4 5 9 7 4 6 6 2 3 2 6 6 5 5 6 6 4 6 5 7 7 9 4 7 7 6 7 7 8 8 7 7 7 10 11 10 11 12 11 11 11 10
15 11 9 14 14 15 16 11 4 3 3 3 5 6 6 5 6 6 5 4 4 5 6 6 4 5 7 5 9 8 6 7 4 5 7 8 9 9 8 9 10 10 11 11 10 10 11 11 11 11 11 10 10 9
17 7 15 16 16 18 16 5 3 6 6 5 7 8 9 5 5 7 5 5 4 5 7 4 5 7 5 7 10 7 11 6 7 6 7 9 10 9 9 10 11 11 11 11 11 11 10 10 9 9 9 8 6 6
11 13 21 19 15 9 2 1 2 6 8 8 8 7 7 6 2 2 4 4 4 6 7 3 5 6 5 8 8 9 3 5 5 8 9 9 10 10 9 10 11 11 10 10 10 9 8 7 6 6 6 7 7 7
8 13 25 23 9 5 3 3 4 5 7 6 9 2 5 5 5 4 2 3 6 3 4 3 6 6 8 3 5 3 5 6 7 8 9 10 10 10 10 10 10 9 9 8 6 6 6 7 6 6 6 7 7 8
14 26 22 15 5 3 5 4 5 5 5 5 5 8 9 8 7 7 6 6 6 6 6 5 7 5 4 6 5 5 1 5 8 8 9 8 8 10 10 8 7 8 7 7 6 3 3 2 3 5 6 7 8 9
13 11 14 5 2 2 4 4 6 5 4 5 8 10 9 8 7 7 8 7 7 8 8 8 8 7 4 4 5 4 2 5 7 8 10 10 9 8 7 7 7 4 3 3 1 5 5 4 4 5 7 8 8 8
3 4 4 3 2 3 4 4 3 3 5 6 6 9 10 10 10 10 8 9 9 8 9 8 8 9 6 5 5 6 3 6 7 7 8 9 9 9 7 6 5 4 3 2 3 4 5 5 7 7 8 8 9 9
10 4 5 7 4 3 3 4 3 5 6 5 8 13 10 11 11 10 13 11 10 9 9 5 5 6 8 6 5 8 9 9 7 8 9 9 7 6 5 4 3 1 2 2 3 4 5 3 3 6 8 8 9 9
4 4 5 6 6 3 4 5 4 4 4 6 6 14 11 9 7 10 12 12 10 12 9 9 7 9 7 6 7 8 8 9 8 8 7 7 7 6 5 5 3 3 2 2 3 3 4 5 4 7 9 10 10 10
2 1 4 2 3 5 6 6 7 5 8 9 11 9 9 6 6 10 12 11 12 13 7 9 9 10 9 9 8 8 10 8 8 8 7 7 7 6 5 4 4 3 2 2 3 4 4 5 5 6 8 8 10 12
1 5 5 7 6 6 7 8 9 10 10 9 7 5 7 8 13 12 11 12 10 6 3 9 10 9 10 7 8 9 7 6 7 8 6 5 5 4 3 2 2 4 4 2 3 5 7 7 7 7 7 9 7 8
2 4 5 3 1 3 5 5 6 6 9 7 8 9 4 6 7 8 8 8 9 3 3 11 6 7 4 7 6 8 7 3 3 4 6 3 3 2 2 2 1 2 4 2 5 6 6 7 8 8 9 8 9 9
4 3 5 4 4 5 6 7 9 8 6 4 4 6 5 6 3 3 5 3 3 3 0 10 7 5 6 6 7 6 5 5 5 5 5 5 3 3 3 1 4 6 3 5 5 6 6 7 7 9 10 10 9 9
4 4 4 7 5 3 5 6 7 5 5 4 7 9 8 3 2 2 2 1 2 4 6 7 6 6 9 8 7 7 8 6 7 9 11 7 6 6 5 3 3 4 3 2 7 4 6 7 9 10 10 8 9 10
2 4 4 6 10 8 7 6 6 7 5 6 6 5 5 4 3 0 3 3 4 5 6 6 6 8 7 8 9 8 6 6 9 9 8 7 5 0 4 3 3 4 3 3 5 1 5 5 5 5 3 6 7 8
7 5 3 4 5 5 5 5 4 4 6 4 4 5 5 2 4 5 5 4 5 5 4 5 7 8 8 9 9 9 8 7 5 2 3 1 1 2 2 2 3 3 3 4 5 4 5 5 5 5 6 7 8 8
3 5 3 4 3 5 8 8 6 6 6 7 7 6 5 5 5 4 6 6 6 6 7 4 5 5 5 3 3 5 2 6 9 6 7 4 4 3 4 3 2 3 1 2 3 4 4 5 5 4 5 7 8 8
6 6 8 5 5 5 5 4 3 4 5 6 7 7 7 5 4 3 4 6 7 7 7 8 5 4 7 5 5 6 2 9 12 10 10 10 10 7 4 2 3 3 2 3 1 1 1 2 1 3 3 4 6 7
Wind_Direction
187 193 185 190 194 206 191 158 62 34 34 26 18 10 4 1 355 346 51 18 330 303 67 347 350 335 298 255 237 108 175 188 206 243 239 234 150 213 250 59 200 224 230 235 233 291 271 122 143 246 104 132 106 91
194 199 188 190 190 201 193 166 123 17 26 27 17 10 5 2 353 342 321 14 327 268 23 31 43 33 359 354 319 197 19 91 24 248 235 21 184 146 280 250 158 242 294 0 333 38 108 172 20 123 154 144 149 143
201 191 192 169 183 191 184 167 161 357 5 19 17 10 2 358 354 351 330 359 272 267 175 204 81 41 21 1 325 291 88 359 209 312 321 1 12 341 238 218 265 190 167 267 291 256 189 187 170 163 177 164 162 155
199 190 186 180 189 186 183 174 169 311 348 358 8 8 360 350 348 341 346 353 304 296 287 101 143 55 339 346 348 274 305 254 284 259 189 190 255 250 269 315 303 16 146 246 261 255 169 201 191 191 189 174 176 164
186 184 188 184 193 191 190 192 190 214 319 342 354 358 355 346 334 312 297 35 12 310 342 29 181 101 7 350 22 16 349 279 222 195 142 204 59 236 258 311 260 203 263 230 325 16 288 54 196 196 194 195 190 181
181 178 182 184 184 191 205 209 208 211 268 326 342 346 343 341 331 278 205 101 17 348 298 280 89 127 69 328 6 24 348 320 334 281 88 62 54 278 200 248 110 104 189 304 326 26 8 31 360 280 207 201 198 193
176 175 177 182 181 179 189 196 197 200 227 302 324 327 327 332 318 327 354 342 342 309 269 272 203 124 247 265 235 320 306 52 339 110 133 119 156 266 267 270 65 211 266 300 216 286 268 255 277 212 242 209 186 196
176 174 176 179 174 172 177 179 184 190 214 283 307 309 307 298 270 250 130 267 315 270 286 287 289 240 192 204 198 330 298 343 35 40 205 214 131 245 252 262 280 291 291 282 273 241 275 314 273 264 248 215 188 206
178 178 174 173 174 173 173 175 176 177 206 285 292 293 276 222 235 57 343 297 254 299 303 259 261 192 187 136 311 184 282 229 101 238 228 186 190 223 259 259 217 262 279 304 306 277 233 231 254 149 217 188 216 211
176 175 176 174 172 171 166 162 160 160 199 279 267 221 201 76 337 262 183 212 195 201 229 258 279 266 244 151 175 184 249 257 228 212 103 233 253 241 157 203 261 276 268 271 270 261 238 229 204 210 216 226 210 236
177 176 177 176 173 166 160 159 152 165 235 219 211 228 52 90 234 217 222 230 169 213 205 237 262 255 162 237 194 245 189 169 235 146 240 226 243 219 128 250 253 269 276 263 256 275 314 287 359 113 103 107 128 134
176 175 175 177 173 168 159 162 171 216 31 18 334 226 222 224 227 210 203 191 224 224 154 206 201 246 100 300 266 158 248 193 260 111 236 249 115 119 160 244 261 282 261 213 209 209 200 118 99 100 100 87 83 80
176 175 174 174 175 165 162 170 195 334 278 214 227 197 200 157 116 211 191 193 201 190 142 168 167 180 152 247 234 188 225 223 106 212 224 291 115 105 95 211 188 176 179 138 147 146 122 111 98 98 98 82 74 67
174 174 172 173 170 160 160 171 175 250 284 249 179 304 213 196 220 201 208 209 117 132 163 191 166 206 211 181 218 224 222 131 224 223 232 136 124 119 159 117 123 155 165 174 158 152 122 97 96 84 76 77 76 67
170 170 168 175 173 161 158 161 177 184 219 270 237 227 202 238 226 207 52 94 113 170 181 200 173 233 185 223 200 236 164 234 210 232 99 130 146 144 120 109 105 105 110 117 113 97 105 105 95 85 74 69 68 61
162 142 192 164 174 160 154 153 175 207 182 253 266 251 254 214 203 192 199 198 137 195 194 219 185 215 196 232 198 202 220 225 230 107 106 141 142 127 113 103 100 96 93 93 93 97 97 92 86 80 72 66 57 48
173 193 150 158 161 151 148 163 173 208 189 226 218 239 274 276 226 170 179 175 172 219 203 201 212 193 219 213 227 213 231 269 116 115 132 130 135 130 125 118 112 109 107 105 102 97 92 85 77 70 61 34 20 41
201 142 143 142 133 121 110 280 209 217 219 217 218 185 213 257 289 164 214 119 205 210 235 223 331 222 210 211 215 225 137 89 99 116 126 138 141 137 128 122 116 112 107 100 90 81 68 67 63 50 27 20 334 358
187 143 141 146 129 108 125 178 258 238 240 221 230 183 213 224 216 301 315 153 243 328 300 211 235 223 233 272 322 57 112 140 136 128 126 144 148 135 128 121 114 108 101 91 79 70 81 54 37 13 1 355 346 327
135 139 138 141 149 119 165 181 237 235 230 213 230 228 230 225 200 204 216 201 200 204 214 237 243 246 249 41 48 330 120 140 140 147 152 151 144 144 150 153 127 133 135 136 122 338 30 1 28 8 5 336 308 321
115 131 125 97 48 238 235 201 190 230 202 220 213 222 229 223 222 221 220 209 209 222 228 235 257 266 88 37 341 308 196 170 170 179 163 160 164 142 147 140 180 130 138 107 14 112 227 10 347 348 338 325 322 331
96 124 119 188 145 215 244 232 244 194 220 229 204 209 224 233 237 232 234 227 220 237 234 249 244 242 214 225 246 261 184 196 204 128 133 140 162 167 167 164 178 146 130 67 11 353 349 356 21 331 311 330 327 299
161 204 197 179 149 142 227 182 219 212 208 222 223 228 218 225 222 222 239 244 236 227 249 245 267 280 282 257 200 213 193 190 167 166 156 183 164 146 135 135 106 70 322 65 20 342 354 51 304 332 322 303 320 318
213 184 177 164 166 114 175 187 208 257 220 210 219 217 225 232 216 223 237 234 235 239 191 216 228 240 210 198 191 189 189 200 176 154 181 142 156 163 155 132 133 109 44 353 353 358 2 346 343 336 340 333 329 326
152 203 125 301 176 156 169 184 193 240 231 204 228 225 222 202 221 241 244 234 238 236 209 184 223 235 214 205 200 180 193 192 165 164 172 189 153 145 169 154 122 68 3 338 27 352 325 320 323 342 339 324 321 315
179 174 184 203 168 173 195 195 204 206 242 229 212 234 249 244 242 243 230 247 263 183 222 227 212 216 215 202 165 148 187 199 173 173 175 185 185 203 186 193 221 145 118 15 336 319 320 323 330 339 312 316 290 289
246 185 209 223 150 231 255 239 226 214 207 221 211 206 208 223 241 234 231 211 240 134 200 238 212 238 160 164 141 150 161 218 232 179 139 135 115 40 355 264 246 38 82 311 306 305 313 317 321 316 316 319 312 310
231 294 212 224 196 220 268 260 252 227 231 230 194 204 221 219 226 18 94 331 0 124 46 277 202 207 151 148 118 123 153 121 130 148 140 147 130 127 110 134 91 83 324 303 319 323 316 318 313 305 307 311 319 335
215 197 233 207 188 237 222 248 239 231 230 243 223 232 242 329 24 267 150 178 196 213 212 221 218 234 139 150 155 165 167 180 197 200 208 215 187 184 181 215 194 217 250 256 170 267 328 324 320 314 314 319 320 319
204 137 217 243 207 211 215 205 253 279 285 267 262 257 231 218 200 186 214 214 221 227 235 224 201 217 192 190 189 189 178 204 209 217 226 227 242 136 121 171 225 248 260 289 284 135 170 252 278 280 255 298 325 318
143 170 224 244 252 230 216 206 231 250 248 241 262 262 258 249 254 205 236 216 225 217 212 218 206 211 195 204 201 181 188 197 170 138 20 85 102 152 182 218 243 288 295 311 354 323 296 310 318 310 305 312 323 323
177 222 208 236 219 202 190 196 196 218 201 212 223 223 219 215 229 233 218 203 206 201 186 232 216 187 189 188 180 144 283 169 142 167 165 194 168 184 180 199 206 228 25 246 261 282 337 317 312 312 321 331 326 340
194 184 207 230 193 195 210 192 219 247 218 226 233 226 193 191 221 267 161 209 212 199 184 195 202 168 184 200 172 113 132 84 78 82 85 61 43 38 315 232 128 175 197 236 189 21 296 302 311 344 338 335 347 348